HAZ1135 ZUUU-ZSNJ

Flight info

Callsign HAZ1135
Flight time 1h 49m
Altitude 39100
Route UBRAB9W UBRAB B213 WHA R343 HFE HFE71F
Aircraft A339/H-SADE1E2E3GHIJ3J5M1P2RWXY/LB2D1

Departure

Time 2026-04-29 08:33
Airport Chengdu Shuangliu International Airport (ZUUU)

Arrival

Time 2026-04-29 10:22
Airport Nanjing Lukou International Airport (ZSNJ)
Time Latitude Longitude Altitude Speed Heading
2026-04-29 08:06 30.57079 103.94888 1698 ft 0 kts 156°
2026-04-29 08:21 30.57090 103.94883 1698 ft 2 kts 157°
2026-04-29 08:22 30.57103 103.94876 1698 ft 2 kts 156°
2026-04-29 08:22 30.57118 103.94868 1698 ft 2 kts 156°
2026-04-29 08:22 30.57132 103.94862 1698 ft 2 kts 156°
2026-04-29 08:22 30.57146 103.94855 1698 ft 2 kts 156°
2026-04-29 08:23 30.57159 103.94848 1698 ft 2 kts 156°
2026-04-29 08:23 30.57173 103.94841 1698 ft 2 kts 156°
2026-04-29 08:23 30.57187 103.94834 1698 ft 2 kts 156°
2026-04-29 08:23 30.57200 103.94827 1698 ft 2 kts 156°
2026-04-29 08:24 30.57214 103.94820 1698 ft 2 kts 156°
2026-04-29 08:24 30.57229 103.94814 1698 ft 2 kts 171°
2026-04-29 08:24 30.57243 103.94813 1698 ft 2 kts 186°
2026-04-29 08:24 30.57257 103.94817 1698 ft 1 kts 200°
2026-04-29 08:25 30.57262 103.94820 1698 ft 0 kts 202°
2026-04-29 08:26 30.57259 103.94818 1698 ft 1 kts 202°
2026-04-29 08:27 30.57249 103.94810 1698 ft 2 kts 218°
2026-04-29 08:27 30.57232 103.94788 1698 ft 4 kts 236°
2026-04-29 08:27 30.57232 103.94763 1698 ft 3 kts 287°
2026-04-29 08:27 30.57231 103.94730 1698 ft 5 kts 244°
2026-04-29 08:28 30.57203 103.94704 1698 ft 6 kts 201°
2026-04-29 08:28 30.57148 103.94677 1698 ft 12 kts 203°
2026-04-29 08:28 30.57060 103.94635 1698 ft 13 kts 204°
2026-04-29 08:28 30.57038 103.94595 1698 ft 5 kts 278°
2026-04-29 08:29 30.57037 103.94557 1698 ft 6 kts 256°
2026-04-29 08:29 30.56996 103.94515 1698 ft 9 kts 202°
2026-04-29 08:29 30.56931 103.94485 1698 ft 10 kts 202°
2026-04-29 08:29 30.56844 103.94444 1698 ft 16 kts 202°
2026-04-29 08:30 30.56723 103.94388 1698 ft 19 kts 202°
2026-04-29 08:30 30.56483 103.94276 1698 ft 18 kts 202°
2026-04-29 08:30 30.56365 103.94221 1698 ft 17 kts 201°
2026-04-29 08:31 30.56310 103.94166 1698 ft 8 kts 268°
2026-04-29 08:31 30.56324 103.94097 1698 ft 9 kts 290°
2026-04-29 08:31 30.56351 103.94029 1698 ft 8 kts 311°
2026-04-29 08:31 30.56373 103.94022 1698 ft 0 kts 18°
2026-04-29 08:32 30.56472 103.94059 1698 ft 45 kts 19°
2026-04-29 08:32 30.56975 103.94292 1698 ft 108 kts 21°
2026-04-29 08:32 30.57858 103.94701 1699 ft 160 kts 22°
2026-04-29 08:32 30.58966 103.95226 2008 ft 177 kts 22°
2026-04-29 08:33 30.60063 103.95739 2719 ft 167 kts 24°
2026-04-29 08:33 30.61118 103.96202 3399 ft 161 kts 24°
2026-04-29 08:33 30.62133 103.96652 3937 ft 155 kts 26°
2026-04-29 08:33 30.63133 103.97139 4342 ft 157 kts 26°
2026-04-29 08:34 30.64166 103.97641 4728 ft 161 kts 25°
2026-04-29 08:34 30.65215 103.98147 5043 ft 170 kts 25°
2026-04-29 08:34 30.66347 103.98682 5314 ft 184 kts 24°
2026-04-29 08:34 30.67592 103.99274 5603 ft 199 kts 27°
2026-04-29 08:35 30.68721 104.00269 5894 ft 212 kts 54°
2026-04-29 08:35 30.69537 104.01762 6214 ft 228 kts 62°
2026-04-29 08:35 30.70332 104.03420 6554 ft 246 kts 62°
2026-04-29 08:35 30.71205 104.05238 6926 ft 264 kts 62°
2026-04-29 08:36 30.72135 104.07145 7326 ft 280 kts 61°
2026-04-29 08:36 30.73106 104.09116 7977 ft 287 kts 60°
2026-04-29 08:36 30.74107 104.11134 8745 ft 289 kts 60°
2026-04-29 08:36 30.75098 104.13130 9509 ft 291 kts 59°
2026-04-29 08:37 30.76237 104.15060 10237 ft 293 kts 45°
2026-04-29 08:37 30.77862 104.16518 10742 ft 303 kts 26°
2026-04-29 08:37 30.79893 104.17442 11086 ft 320 kts 18°
2026-04-29 08:37 30.82075 104.18256 11403 ft 338 kts 17°
2026-04-29 08:38 30.84376 104.19110 11740 ft 354 kts 17°
2026-04-29 08:38 30.86737 104.20003 12325 ft 362 kts 17°
2026-04-29 08:38 30.89147 104.20931 13017 ft 367 kts 17°
2026-04-29 08:38 30.91581 104.21875 13704 ft 371 kts 17°
2026-04-29 08:39 30.94039 104.22835 14423 ft 374 kts 17°
2026-04-29 08:39 30.96529 104.23819 15178 ft 376 kts 19°
2026-04-29 08:39 30.98795 104.25326 15845 ft 383 kts 40°
2026-04-29 08:39 31.00425 104.27748 16581 ft 388 kts 61°
2026-04-29 08:40 31.01234 104.30756 17274 ft 394 kts 82°
2026-04-29 08:40 31.01300 104.33946 17958 ft 397 kts 88°
2026-04-29 08:40 31.01314 104.37153 18571 ft 402 kts 88°
2026-04-29 08:40 31.01343 104.40437 19124 ft 409 kts 88°
2026-04-29 08:41 31.01387 104.43778 19699 ft 415 kts 87°
2026-04-29 08:41 31.01438 104.47144 20262 ft 420 kts 87°
2026-04-29 08:41 31.01491 104.50553 20826 ft 425 kts 87°
2026-04-29 08:41 31.01546 104.53962 21341 ft 430 kts 87°
2026-04-29 08:42 31.01603 104.57494 21852 ft 436 kts 87°
2026-04-29 08:42 31.01659 104.61043 22348 ft 441 kts 86°
2026-04-29 08:42 31.01715 104.64594 22840 ft 446 kts 86°
2026-04-29 08:42 31.01770 104.68223 23357 ft 450 kts 87°
2026-04-29 08:43 31.01827 104.71857 23840 ft 454 kts 86°
2026-04-29 08:43 31.01884 104.75577 24288 ft 459 kts 87°
2026-04-29 08:43 31.01941 104.79285 24752 ft 463 kts 87°
2026-04-29 08:43 31.01996 104.83013 25161 ft 468 kts 87°
2026-04-29 08:44 31.02049 104.86836 25583 ft 473 kts 87°
2026-04-29 08:44 31.02100 104.90687 26026 ft 476 kts 87°
2026-04-29 08:44 31.02021 104.94527 26436 ft 481 kts 94°
2026-04-29 08:44 31.01416 104.98391 26834 ft 486 kts 105°
2026-04-29 08:45 31.00284 105.02080 27233 ft 488 kts 114°
2026-04-29 08:45 30.98873 105.05656 27603 ft 492 kts 116°
2026-04-29 08:45 30.97382 105.09289 27984 ft 496 kts 117°
2026-04-29 08:45 30.95905 105.12898 28379 ft 499 kts 117°
2026-04-29 08:46 30.94427 105.16546 28741 ft 503 kts 117°
2026-04-29 08:46 30.92939 105.20260 29075 ft 506 kts 116°
2026-04-29 08:46 30.91449 105.24003 29429 ft 510 kts 116°
2026-04-29 08:46 30.89971 105.27722 29785 ft 513 kts 117°
2026-04-29 08:47 30.88473 105.31484 30136 ft 516 kts 116°
2026-04-29 08:47 30.86690 105.36697 30613 ft 522 kts 108°
2026-04-29 08:47 30.86104 105.39424 30815 ft 525 kts 101°
2026-04-29 08:47 30.85640 105.43626 31164 ft 527 kts 92°
2026-04-29 08:48 30.85699 105.47862 31608 ft 526 kts 83°
2026-04-29 08:48 30.86260 105.52029 32152 ft 521 kts 75°
2026-04-29 08:48 30.87111 105.56056 32708 ft 518 kts 72°
2026-04-29 08:48 30.88029 105.60085 33214 ft 516 kts 72°
2026-04-29 08:49 30.88950 105.64138 33680 ft 516 kts 72°
2026-04-29 08:49 30.89843 105.68153 34032 ft 516 kts 73°
2026-04-29 08:49 30.90714 105.72181 34321 ft 516 kts 73°
2026-04-29 08:49 30.91585 105.76263 34626 ft 517 kts 73°
2026-04-29 08:50 30.92443 105.80326 34899 ft 518 kts 73°
2026-04-29 08:50 30.93292 105.84354 35212 ft 517 kts 73°
2026-04-29 08:50 30.94150 105.88437 35503 ft 517 kts 73°
2026-04-29 08:50 30.94912 105.92499 35787 ft 519 kts 77°
2026-04-29 08:51 30.95378 105.96618 36157 ft 521 kts 83°
2026-04-29 08:51 30.95520 106.00833 36479 ft 522 kts 89°
2026-04-29 08:51 30.95321 106.05044 36785 ft 523 kts 95°
2026-04-29 08:51 30.94780 106.09236 37080 ft 525 kts 101°
2026-04-29 08:52 30.93924 106.13367 37379 ft 525 kts 105°
2026-04-29 08:52 30.92929 106.17455 37650 ft 525 kts 106°
2026-04-29 08:52 30.91919 106.21510 37863 ft 527 kts 106°
2026-04-29 08:52 30.90913 106.25596 38028 ft 530 kts 105°
2026-04-29 08:53 30.89923 106.29718 38189 ft 532 kts 106°
2026-04-29 08:53 30.88757 106.33798 38387 ft 533 kts 112°
2026-04-29 08:53 30.87245 106.37738 38613 ft 532 kts 119°
2026-04-29 08:53 30.85415 106.41420 38811 ft 530 kts 126°
2026-04-29 08:54 30.83230 106.44916 38971 ft 529 kts 133°
2026-04-29 08:54 30.80823 106.48062 39125 ft 526 kts 139°
2026-04-29 08:54 30.78165 106.51015 39196 ft 526 kts 142°
2026-04-29 08:55 30.72778 106.56690 39193 ft 526 kts 142°
2026-04-29 08:55 30.67371 106.62489 39198 ft 528 kts 142°
2026-04-29 08:56 30.62026 106.68271 39190 ft 527 kts 142°
2026-04-29 08:56 30.56678 106.74045 39195 ft 527 kts 142°
2026-04-29 08:57 30.51323 106.79816 39197 ft 526 kts 142°
2026-04-29 08:57 30.45966 106.85590 39208 ft 527 kts 142°
2026-04-29 08:58 30.40594 106.91376 39207 ft 527 kts 142°
2026-04-29 08:58 30.35258 106.97111 39206 ft 527 kts 142°
2026-04-29 08:59 30.29789 107.02786 39208 ft 526 kts 144°
2026-04-29 08:59 30.24340 107.08352 39209 ft 525 kts 144°
2026-04-29 09:00 30.18886 107.13943 39210 ft 525 kts 144°
2026-04-29 09:00 30.13438 107.19572 39213 ft 528 kts 142°
2026-04-29 09:01 30.08187 107.25454 39212 ft 529 kts 141°
2026-04-29 09:01 30.03052 107.31554 39221 ft 533 kts 134°
2026-04-29 09:02 29.98740 107.38583 39227 ft 540 kts 122°
2026-04-29 09:02 29.95615 107.46467 39227 ft 544 kts 109°
2026-04-29 09:03 29.93483 107.54782 39224 ft 546 kts 106°
2026-04-29 09:03 29.91699 107.63250 39244 ft 545 kts 98°
2026-04-29 09:04 29.91287 107.71925 39232 ft 543 kts 84°
2026-04-29 09:04 29.92494 107.80460 39240 ft 536 kts 71°
2026-04-29 09:05 29.94658 107.88589 39265 ft 536 kts 69°
2026-04-29 09:05 29.96817 107.96835 39247 ft 537 kts 70°
2026-04-29 09:06 29.98910 108.05088 39237 ft 536 kts 70°
2026-04-29 09:06 30.00964 108.13274 39250 ft 535 kts 70°
2026-04-29 09:07 30.03030 108.21523 39250 ft 535 kts 70°
2026-04-29 09:07 30.05080 108.29714 39254 ft 534 kts 70°
2026-04-29 09:08 30.07124 108.37912 39240 ft 533 kts 70°
2026-04-29 09:08 30.09160 108.46114 39252 ft 533 kts 70°
2026-04-29 09:09 30.11200 108.54346 39238 ft 532 kts 70°
2026-04-29 09:09 30.13444 108.62399 39262 ft 529 kts 67°
2026-04-29 09:10 30.15811 108.70435 39248 ft 528 kts 68°
2026-04-29 09:10 30.18156 108.78455 39249 ft 529 kts 68°
2026-04-29 09:11 30.20491 108.86499 39266 ft 528 kts 68°
2026-04-29 09:11 30.22757 108.94546 39273 ft 529 kts 71°
2026-04-29 09:12 30.24760 109.02651 39270 ft 527 kts 71°
2026-04-29 09:12 30.26755 109.10816 39271 ft 530 kts 71°
2026-04-29 09:13 30.28752 109.19003 39280 ft 529 kts 71°
2026-04-29 09:13 30.30740 109.27118 39281 ft 528 kts 72°
2026-04-29 09:14 30.32741 109.35314 39280 ft 529 kts 72°
2026-04-29 09:14 30.34728 109.43489 39266 ft 529 kts 72°
2026-04-29 09:15 30.36708 109.51646 39273 ft 530 kts 72°
2026-04-29 09:15 30.38650 109.59872 39262 ft 530 kts 74°
2026-04-29 09:16 30.40049 109.68216 39273 ft 531 kts 80°
2026-04-29 09:16 30.41260 109.76603 39274 ft 531 kts 80°
2026-04-29 09:17 30.42482 109.85061 39276 ft 531 kts 80°
2026-04-29 09:17 30.43705 109.93462 39277 ft 532 kts 80°
2026-04-29 09:18 30.44926 110.01894 39282 ft 532 kts 80°
2026-04-29 09:18 30.46149 110.10330 39273 ft 532 kts 80°
2026-04-29 09:19 30.47366 110.18786 39289 ft 534 kts 81°
2026-04-29 09:19 30.48573 110.27245 39299 ft 534 kts 81°
2026-04-29 09:20 30.49777 110.35669 39286 ft 535 kts 81°
2026-04-29 09:20 30.50984 110.44201 39279 ft 538 kts 81°
2026-04-29 09:21 30.52192 110.52725 39291 ft 537 kts 81°
2026-04-29 09:21 30.53390 110.61265 39282 ft 539 kts 81°
2026-04-29 09:22 30.54582 110.69827 39268 ft 540 kts 82°
2026-04-29 09:22 30.55777 110.78394 39283 ft 539 kts 81°
2026-04-29 09:23 30.56966 110.86961 39272 ft 540 kts 82°
2026-04-29 09:23 30.58146 110.95546 39275 ft 541 kts 82°
2026-04-29 09:24 30.59328 111.04174 39276 ft 542 kts 82°
2026-04-29 09:24 30.60504 111.12791 39278 ft 543 kts 82°
2026-04-29 09:25 30.61672 111.21418 39269 ft 543 kts 82°
2026-04-29 09:25 30.62833 111.29983 39262 ft 543 kts 83°
2026-04-29 09:26 30.63986 111.38640 39272 ft 543 kts 82°
2026-04-29 09:26 30.65103 111.47306 39257 ft 543 kts 85°
2026-04-29 09:27 30.65676 111.55955 39263 ft 542 kts 89°
2026-04-29 09:27 30.66087 111.64657 39254 ft 542 kts 88°
2026-04-29 09:28 30.66525 111.73379 39255 ft 542 kts 89°
2026-04-29 09:28 30.66971 111.82082 39245 ft 542 kts 89°
2026-04-29 09:29 30.67405 111.90847 39250 ft 545 kts 90°
2026-04-29 09:29 30.68160 112.03898 39246 ft 543 kts 87°
2026-04-29 09:30 30.68785 112.12645 39239 ft 545 kts 88°
2026-04-29 09:30 30.69387 112.21400 39242 ft 545 kts 88°
2026-04-29 09:31 30.69977 112.30151 39242 ft 546 kts 87°
2026-04-29 09:31 30.70557 112.38892 39238 ft 546 kts 87°
2026-04-29 09:32 30.71136 112.47666 39246 ft 546 kts 88°
2026-04-29 09:32 30.71706 112.56441 39240 ft 546 kts 87°
2026-04-29 09:33 30.72266 112.65179 39236 ft 548 kts 88°
2026-04-29 09:33 30.72834 112.74008 39240 ft 546 kts 88°
2026-04-29 09:34 30.73384 112.82769 39238 ft 547 kts 88°
2026-04-29 09:34 30.73934 112.91584 39237 ft 548 kts 89°
2026-04-29 09:35 30.74473 113.00355 39243 ft 548 kts 88°
2026-04-29 09:35 30.75011 113.09148 39241 ft 547 kts 88°
2026-04-29 09:36 30.75441 113.17981 39240 ft 547 kts 91°
2026-04-29 09:36 30.75667 113.26733 39244 ft 545 kts 92°
2026-04-29 09:37 30.75874 113.35531 39246 ft 546 kts 92°
2026-04-29 09:37 30.76083 113.44321 39241 ft 546 kts 91°
2026-04-29 09:38 30.76302 113.53110 39245 ft 546 kts 92°
2026-04-29 09:38 30.76508 113.61887 39249 ft 546 kts 92°
2026-04-29 09:39 30.76714 113.70669 39240 ft 544 kts 92°
2026-04-29 09:39 30.76911 113.79420 39248 ft 544 kts 93°
2026-04-29 09:40 30.77098 113.88169 39239 ft 545 kts 93°
2026-04-29 09:40 30.77282 113.96922 39243 ft 545 kts 93°
2026-04-29 09:41 30.77512 114.05692 39257 ft 545 kts 92°
2026-04-29 09:41 30.78059 114.14500 39263 ft 549 kts 86°
2026-04-29 09:42 30.79453 114.23195 39259 ft 553 kts 77°
2026-04-29 09:42 30.81816 114.31718 39264 ft 554 kts 70°
2026-04-29 09:43 30.84570 114.39996 39259 ft 554 kts 70°
2026-04-29 09:43 30.87297 114.48358 39263 ft 554 kts 71°
2026-04-29 09:44 30.90017 114.56736 39263 ft 554 kts 71°
2026-04-29 09:44 30.92724 114.65104 39260 ft 554 kts 71°
2026-04-29 09:45 30.95434 114.73465 39247 ft 552 kts 72°
2026-04-29 09:45 30.98111 114.81784 39255 ft 552 kts 72°
2026-04-29 09:46 31.00798 114.90142 39259 ft 554 kts 71°
2026-04-29 09:46 31.03490 114.98530 39253 ft 554 kts 72°
2026-04-29 09:47 31.06184 115.06956 39253 ft 553 kts 72°
2026-04-29 09:47 31.08850 115.15318 39251 ft 554 kts 72°
2026-04-29 09:48 31.11537 115.23762 39252 ft 554 kts 72°
2026-04-29 09:48 31.14199 115.32168 39262 ft 556 kts 72°
2026-04-29 09:49 31.16924 115.40556 39161 ft 557 kts 71°
2026-04-29 09:49 31.18302 115.44792 38583 ft 560 kts 71°
2026-04-29 09:49 31.19672 115.49014 38020 ft 560 kts 71°
2026-04-29 09:50 31.21048 115.53280 37443 ft 560 kts 71°
2026-04-29 09:50 31.22413 115.57523 36858 ft 560 kts 71°
2026-04-29 09:50 31.23774 115.61745 36212 ft 561 kts 71°
2026-04-29 09:50 31.25154 115.66054 35547 ft 562 kts 72°
2026-04-29 09:51 31.26505 115.70269 34894 ft 562 kts 71°
2026-04-29 09:51 31.27881 115.74564 34222 ft 563 kts 72°
2026-04-29 09:51 31.29236 115.78799 33553 ft 563 kts 71°
2026-04-29 09:51 31.30604 115.83080 32898 ft 563 kts 71°
2026-04-29 09:52 31.31957 115.87326 32258 ft 563 kts 71°
2026-04-29 09:52 31.33332 115.91605 31556 ft 564 kts 70°
2026-04-29 09:52 31.34731 115.95900 30880 ft 563 kts 70°
2026-04-29 09:52 31.36117 116.00141 30420 ft 558 kts 70°
2026-04-29 09:53 31.37506 116.04392 30010 ft 551 kts 70°
2026-04-29 09:53 31.38858 116.08523 29638 ft 543 kts 70°
2026-04-29 09:53 31.40181 116.12582 29289 ft 535 kts 70°
2026-04-29 09:53 31.41489 116.16620 28904 ft 529 kts 70°
2026-04-29 09:54 31.42791 116.20638 28467 ft 524 kts 70°
2026-04-29 09:54 31.44070 116.24587 28074 ft 518 kts 70°
2026-04-29 09:54 31.45335 116.28501 27682 ft 513 kts 69°
2026-04-29 09:54 31.46572 116.32346 27257 ft 508 kts 70°
2026-04-29 09:55 31.47826 116.36234 26840 ft 504 kts 69°
2026-04-29 09:55 31.49041 116.40008 26443 ft 500 kts 69°
2026-04-29 09:55 31.50260 116.43803 26033 ft 495 kts 69°
2026-04-29 09:55 31.51459 116.47535 25637 ft 491 kts 69°
2026-04-29 09:56 31.52658 116.51266 25252 ft 487 kts 69°
2026-04-29 09:56 31.53845 116.54973 24836 ft 484 kts 69°
2026-04-29 09:56 31.55016 116.58628 24461 ft 479 kts 69°
2026-04-29 09:56 31.56185 116.62283 24065 ft 476 kts 69°
2026-04-29 09:57 31.57330 116.65865 23665 ft 473 kts 69°
2026-04-29 09:57 31.58483 116.69474 23295 ft 469 kts 69°
2026-04-29 09:57 31.59618 116.73039 22910 ft 465 kts 69°
2026-04-29 09:57 31.60734 116.76545 22529 ft 462 kts 69°
2026-04-29 09:58 31.61849 116.80057 22169 ft 458 kts 69°
2026-04-29 09:58 31.62951 116.83537 21791 ft 455 kts 68°
2026-04-29 09:58 31.64051 116.87001 21417 ft 451 kts 69°
2026-04-29 09:58 31.65140 116.90429 21064 ft 447 kts 69°
2026-04-29 09:59 31.66202 116.93790 20729 ft 443 kts 68°
2026-04-29 09:59 31.67266 116.97154 20361 ft 440 kts 68°
2026-04-29 09:59 31.68338 117.00538 19996 ft 436 kts 68°
2026-04-29 09:59 31.69368 117.03841 19645 ft 432 kts 68°
2026-04-29 10:00 31.70384 117.07130 19280 ft 429 kts 68°
2026-04-29 10:00 31.71392 117.10394 18919 ft 426 kts 68°
2026-04-29 10:00 31.72403 117.13670 18553 ft 422 kts 68°
2026-04-29 10:00 31.73384 117.16846 18218 ft 418 kts 68°
2026-04-29 10:01 31.74373 117.20055 17878 ft 414 kts 68°
2026-04-29 10:01 31.75346 117.23212 17514 ft 412 kts 67°
2026-04-29 10:01 31.76304 117.26352 17135 ft 409 kts 69°
2026-04-29 10:01 31.76771 117.29636 16766 ft 409 kts 91°
2026-04-29 10:02 31.76122 117.32842 16415 ft 406 kts 116°
2026-04-29 10:02 31.74593 117.35569 16069 ft 400 kts 128°
2026-04-29 10:02 31.72867 117.38159 15720 ft 397 kts 129°
2026-04-29 10:02 31.71198 117.40685 15390 ft 394 kts 128°
2026-04-29 10:03 31.69549 117.43261 15032 ft 392 kts 127°
2026-04-29 10:03 31.67936 117.45852 14689 ft 388 kts 126°
2026-04-29 10:03 31.66355 117.48429 14363 ft 385 kts 125°
2026-04-29 10:03 31.64798 117.50978 14026 ft 382 kts 125°
2026-04-29 10:04 31.63261 117.53497 13696 ft 379 kts 124°
2026-04-29 10:04 31.61807 117.56050 13363 ft 375 kts 115°
2026-04-29 10:04 31.61049 117.58926 13037 ft 367 kts 94°
2026-04-29 10:04 31.61104 117.61849 12733 ft 359 kts 80°
2026-04-29 10:05 31.61417 117.64736 12390 ft 356 kts 79°
2026-04-29 10:05 31.61744 117.67593 12065 ft 354 kts 79°
2026-04-29 10:05 31.62058 117.70437 11745 ft 351 kts 80°
2026-04-29 10:05 31.62356 117.73260 11422 ft 348 kts 81°
2026-04-29 10:06 31.62647 117.76089 11098 ft 345 kts 81°
2026-04-29 10:06 31.62921 117.78849 10769 ft 343 kts 81°
2026-04-29 10:06 31.63195 117.81627 10425 ft 341 kts 81°
2026-04-29 10:06 31.63464 117.84352 10182 ft 335 kts 82°
2026-04-29 10:07 31.63723 117.87011 10128 ft 322 kts 82°
2026-04-29 10:07 31.63971 117.89581 10092 ft 310 kts 81°
2026-04-29 10:07 31.64206 117.92037 10057 ft 299 kts 81°
2026-04-29 10:07 31.64440 117.94413 10019 ft 288 kts 81°
2026-04-29 10:08 31.64661 117.96718 9926 ft 280 kts 81°
2026-04-29 10:08 31.64879 117.98962 9652 ft 280 kts 81°
2026-04-29 10:08 31.65101 118.01244 9379 ft 279 kts 80°
2026-04-29 10:08 31.65313 118.03454 9128 ft 277 kts 81°
2026-04-29 10:09 31.65532 118.05707 8877 ft 274 kts 81°
2026-04-29 10:09 31.65743 118.07916 8633 ft 272 kts 80°
2026-04-29 10:09 31.65952 118.10094 8396 ft 270 kts 81°
2026-04-29 10:09 31.66160 118.12296 8154 ft 268 kts 80°
2026-04-29 10:10 31.66365 118.14447 7919 ft 266 kts 80°
2026-04-29 10:10 31.66565 118.16592 7685 ft 264 kts 81°
2026-04-29 10:10 31.66661 118.18732 7451 ft 263 kts 85°
2026-04-29 10:10 31.66674 118.20849 7228 ft 261 kts 85°
2026-04-29 10:11 31.66682 118.22984 6998 ft 258 kts 86°
2026-04-29 10:11 31.66688 118.25076 6763 ft 256 kts 85°
2026-04-29 10:11 31.66694 118.27155 6533 ft 254 kts 85°
2026-04-29 10:11 31.66701 118.29215 6289 ft 253 kts 85°
2026-04-29 10:12 31.66708 118.31280 6046 ft 251 kts 85°
2026-04-29 10:12 31.66717 118.33306 5811 ft 250 kts 85°
2026-04-29 10:12 31.66722 118.35346 5667 ft 244 kts 85°
2026-04-29 10:12 31.66724 118.37285 5646 ft 235 kts 85°
2026-04-29 10:13 31.66729 118.39169 5636 ft 224 kts 85°
2026-04-29 10:13 31.66727 118.40953 5611 ft 214 kts 89°
2026-04-29 10:13 31.66453 118.42639 5552 ft 212 kts 104°
2026-04-29 10:13 31.65881 118.44243 5335 ft 214 kts 109°
2026-04-29 10:14 31.65248 118.45831 5119 ft 213 kts 110°
2026-04-29 10:14 31.64615 118.47405 4919 ft 212 kts 109°
2026-04-29 10:14 31.63995 118.48961 4726 ft 210 kts 110°
2026-04-29 10:14 31.63388 118.50499 4528 ft 208 kts 109°
2026-04-29 10:15 31.62782 118.52039 4330 ft 206 kts 110°
2026-04-29 10:15 31.62190 118.53559 4130 ft 205 kts 110°
2026-04-29 10:15 31.61598 118.55073 3941 ft 204 kts 109°
2026-04-29 10:15 31.61006 118.56584 3753 ft 203 kts 110°
2026-04-29 10:16 31.60419 118.58083 3605 ft 199 kts 109°
2026-04-29 10:16 31.60053 118.59544 3598 ft 179 kts 85°
2026-04-29 10:16 31.60325 118.60917 3459 ft 168 kts 66°
2026-04-29 10:16 31.60751 118.62180 3288 ft 168 kts 64°
2026-04-29 10:17 31.61199 118.63469 3122 ft 171 kts 65°
2026-04-29 10:17 31.61623 118.64764 2945 ft 173 kts 70°
2026-04-29 10:17 31.61928 118.66134 2787 ft 172 kts 72°
2026-04-29 10:17 31.62312 118.67474 2592 ft 173 kts 66°
2026-04-29 10:18 31.62833 118.68743 2410 ft 172 kts 60°
2026-04-29 10:18 31.63428 118.69938 2284 ft 173 kts 58°
2026-04-29 10:18 31.64077 118.71160 2281 ft 173 kts 57°
2026-04-29 10:18 31.64700 118.72324 2269 ft 159 kts 57°
2026-04-29 10:19 31.65272 118.73394 2260 ft 154 kts 57°
2026-04-29 10:19 31.65839 118.74458 2107 ft 153 kts 57°
2026-04-29 10:19 31.66399 118.75513 1895 ft 149 kts 56°
2026-04-29 10:19 31.66933 118.76518 1691 ft 143 kts 56°
2026-04-29 10:20 31.67458 118.77505 1505 ft 142 kts 56°
2026-04-29 10:20 31.67981 118.78484 1333 ft 142 kts 58°
2026-04-29 10:20 31.68501 118.79463 1151 ft 142 kts 57°
2026-04-29 10:20 31.69022 118.80441 956 ft 141 kts 59°
2026-04-29 10:21 31.69540 118.81427 764 ft 141 kts 59°
2026-04-29 10:21 31.70076 118.82394 569 ft 140 kts 58°
2026-04-29 10:21 31.70587 118.83365 378 ft 140 kts 60°
2026-04-29 10:21 31.71097 118.84330 187 ft 139 kts 59°
2026-04-29 10:22 31.71610 118.85287 67 ft 130 kts 59°
2026-04-29 10:22 31.71965 118.85960 65 ft 65 kts 58°
2026-04-29 10:22 31.72161 118.86327 65 ft 47 kts 58°
2026-04-29 10:22 31.72344 118.86615 65 ft 37 kts 38°
2026-04-29 10:23 31.72521 118.86744 65 ft 15 kts 18°
2026-04-29 10:23 31.72598 118.86712 65 ft 9 kts 330°
2026-04-29 10:23 31.72662 118.86668 65 ft 11 kts 329°
2026-04-29 10:23 31.72720 118.86650 65 ft 7 kts 29°
2026-04-29 10:24 31.72756 118.86700 65 ft 9 kts 57°
2026-04-29 10:24 31.72793 118.86768 65 ft 10 kts 58°
2026-04-29 10:24 31.72836 118.86849 65 ft 12 kts 58°
2026-04-29 10:24 31.72884 118.86939 65 ft 13 kts 58°
2026-04-29 10:25 31.72930 118.86985 65 ft 7 kts 354°
2026-04-29 10:25 31.72976 118.86961 65 ft 5 kts 330°
2026-04-29 10:25 31.72997 118.86947 65 ft 0 kts 329°